This is the latest recevied weather packets stored in our database for station/object CE3MXM-13. If no packets are shown the sender has not sent any weather packets the latest 10 day(s).
| Time | Temp. | Humidity | Pressure | Rain* | Wind** | Luminosity | Snow |
|---|---|---|---|---|---|---|---|
| 1777856358 | 12.78° C | 77% | 1013.8 hPa | - | - | - | - |
| 1777856058 | 12.78° C | 78% | 1013.7 hPa | - | - | - | - |
| 1777855759 | 12.78° C | 76% | 1013.6 hPa | - | - | - | - |
| 1777855458 | 12.78° C | 76% | 1013.7 hPa | - | - | - | - |
| 1777855158 | 12.78° C | 78% | 1013.6 hPa | - | - | - | - |
| 1777854858 | 12.78° C | 78% | 1013.8 hPa | - | - | - | - |
| 1777854558 | 12.78° C | 77% | 1013.6 hPa | - | - | - | - |
| 1777854258 | 12.78° C | 76% | 1013.5 hPa | - | - | - | - |
| 1777853957 | 12.78° C | 77% | 1013.7 hPa | - | - | - | - |
| 1777853658 | 12.22° C | 76% | 1013.7 hPa | - | - | - | - |
| 1777853358 | 12.22° C | 76% | 1013.4 hPa | - | - | - | - |
| 1777853058 | 12.22° C | 76% | 1013.7 hPa | - | - | - | - |
| 1777852757 | 12.22° C | 76% | 1013.6 hPa | - | - | - | - |
| 1777852457 | 12.22° C | 76% | 1013.6 hPa | - | - | - | - |
| 1777852157 | 12.22° C | 76% | 1013.6 hPa | - | - | - | - |
| 1777851857 | 12.22° C | 75% | 1013.5 hPa | - | - | - | - |
| 1777851557 | 12.22° C | 76% | 1013.6 hPa | - | - | - | - |
| 1777851257 | 12.22° C | 75% | 1013.5 hPa | - | - | - | - |
| 1777850957 | 12.78° C | 75% | 1013.6 hPa | - | - | - | - |
| 1777850657 | 12.78° C | 75% | 1013.5 hPa | - | - | - | - |
| 1777850356 | 13.33° C | 74% | 1013.4 hPa | - | - | - | - |
| 1777850056 | 13.33° C | 74% | 1013.4 hPa | - | - | - | - |
| 1777849756 | 13.33° C | 71% | 1013.4 hPa | - | - | - | - |
| 1777849456 | 13.89° C | 69% | 1013.6 hPa | - | - | - | - |
| 1777849156 | 14.44° C | 69% | 1013.4 hPa | - | - | - | - |
* Rain since midnight (hover to see other rain measurements)
** Current wind speed in m/s (hover to see current wind gust speed)